www.pogodaiklimat.ru

Погода и климат >> Архив погоды >> Индия >> Андхра-Прадеш >> Тирупати


ПОГОДА в Тирупати

  • Прогноз погоды в Тирупати
  • Монитор погоды в Тирупати

АРХИВ ПОГОДЫ в Тирупати

Время (UTC), дата Ветер
(напр.,м/с)
 
Видим.   Явления Облачность Т
(С)
Тd
(С)
f
(%)
Тe
(С)
Тes
(С)
Комфортность P
(гПа)
Po
(гПа)
Тmin
(С)
Tmax
(С)
R
(мм)
R24
(мм)
S
(см)
21 15.09 З 2 2000 м слаб. морось {дождь} 10/5 300 м
[Frnb As op]
+25.0 +23.5 91 +34 +34 очень
душно
1007.5 995.7 10
00 16.09 З 2 2000 м слаб. морось {дождь} 10/5 300 м
[Frnb As op]
+25.0 +23.5 91 +34 +34 очень
душно
1007.5 995.7 10
03 16.09 З 2 4000 м слаб. дождь {морось} 10/5 300 м
[Cb calv Ac As]
+25.2 +23.7 91 +34 +35 очень
душно
1008.2 996.4 +23.5 +35.0 11
06 16.09 З 2 4000 м {дождь, морось} 9/5 300 м
[Sc Ac trans]
+28.4 +23.4 74 +38 +44 очень
душно
1007.3 995.6 0.2
09 16.09 З 3 4000 м 8/4 300 м
[Sc Ac trans]
+33.0 +23.1 56 +43 +47 опасность
перегрева
1003.5 992.0 0.2
12 16.09 С 3 4000 м 6/3 300 м
[Sc Ac trans]
+32.2 +23.8 61 +44 +44 опасность
перегрева
1003.1 991.6 +34.1 0.2
00 17.09 штиль 0 4000 м слаб. морось {гроза, дождь} 9/5 300 м
[Cb calv Ac As]
+25.4 +24.5 95 +36 +36 очень
душно
1005.8 994.0 15
03 17.09 СЗ 3 4000 м {морось} 9/4 300 м
[Sc Ac As]
+26.4 +24.3 88 +37 +38 очень
душно
1007.2 995.4 +22.9 +34.1 16
06 17.09 С 5 4000 м слаб. морось 9/4 300 м
[Sc Ac As]
+28.0 +23.9 78 +39 +41 очень
душно
1007.1 995.4 0.0
09 17.09 С 5 4000 м {морось} 9/4 300 м
[Sc Ac As]
+30.2 +24.1 70 +42 +44 опасность
перегрева
1004.0 992.4 0.0
12 17.09 С 3 4000 м 6/3 300 м
[Sc Ac trans]
+29.8 +24.0 71 +41 +41 опасность
перегрева
1003.6 992.0 +30.6 0.0
00 18.09 ЮЗ 3 4000 м слаб. морось {дождь} 9/5 300 м
[Sc Ac As]
+25.8 +24.6 93 +36 +36 очень
душно
1005.4 993.6 0.5
03 18.09 СЗ 1 4000 м в посл. час морось 9/4 300 м
[Sc Ac As]
+26.4 +24.3 88 +37 +39 очень
душно
1007.8 996.0 +24.9 +30.6 0.9
06 18.09 З 3 4000 м в посл. час морось {дождь} 9/4 300 м
[Sc Ac As]
+28.0 +25.4 86 +41 +46 опасность
перегрева
1006.9 995.2 0.4
09 18.09 ЮЗ 2 4000 м {морось} 9/4 300 м
[Sc Ac trans]
+30.2 +24.1 70 +42 +47 опасность
перегрева
1004.2 992.6 0.4
12 18.09 нст 1 4000 м {морось} 8/4 300 м
[Sc Ac trans]
+31.4 +24.8 68 +45 +45 опасность
перегрева
1003.3 991.8 +33.4 0.4
00 19.09 З 2 4000 м слаб. дождь {гроза} 10/6 300 м
[Cb calv As op]
+24.8 +23.9 95 +34 +34 очень
душно
1006.8 995.0 17
03 19.09 штиль 0 4000 м слаб. морось {дождь} 10/5 300 м
[Sc As op]
+25.2 +24.0 93 +35 +36 очень
душно
1008.8 997.0 +23.9 +33.4 18
06 19.09 нст 1 4000 м мгла {дождь} 10/5 300 м
[Sc As op]
+26.2 +23.5 85 +36 +38 очень
душно
1007.9 996.1
09 19.09 нст 1 4000 м 9/4 300 м
[Sc Ac As]
+29.0 +23.4 72 +39 +43 очень
душно
1004.9 993.2
12 19.09 нст 2 4000 м 6/3 600 м
[Sc Ac trans]
+30.0 +24.2 71 +42 +42 опасность
перегрева
1005.2 993.5 +31.0
00 20.09 штиль 0 4000 м {гроза, дождь} 9/4 300 м
[Sc Ac trans]
+25.0 +23.5 91 +34 +34 очень
душно
1007.2 995.4 4
03 20.09 С 3 4000 м 9/4 300 м
[Sc Ac trans]
+26.6 +23.0 81 +36 +37 очень
душно
1009.7 997.9 +24.1 +31.0 4
06 20.09 нст 2 4000 м 8/3 600 м
[Sc Ac trans]
+29.8 +22.7 66 +39 +48 очень
душно
1008.6 996.9
09 20.09 нст 1 4000 м 9/4 600 м
[Sc Ac As]
+31.0 +22.8 62 +41 +45 опасность
перегрева
1005.6 994.0
12 20.09 штиль 0 4000 м 6/3 600 м
[Sc Ci fib]
+31.8 +23.4 61 +43 +43 опасность
перегрева
1005.0 993.4 +32.7
00 21.09 З 3 4000 м 4/3 600 м
[Sc Ci fib]
+27.0 +24.1 84 +37 +37 очень
душно
1007.0 995.2
03 21.09 З 2 4000 м мгла {туман} 4/4 600 м
[]
+28.6 +23.9 76 +40 +43 очень
душно
1008.1 996.4 +26.2 +32.7
06 21.09 С 5 2000 м гроза, ливневой дождь {туман} 6/6 300 м
[Cb cap]
+32.0 +24.6 65 +45 +50 опасность
перегрева
1006.6 995.0
09 21.09 ЮЗ 3 4000 м в посл. час гроза {морось} 9/5 300 м
[Cb calv As op]
+28.4 +24.0 77 +39 +42 очень
душно
1005.5 993.8 0.0
12 21.09 нст 1 4000 м {гроза, морось} 9/4 300 м
[Sc As op]
+27.8 +23.7 78 +38 +38 очень
душно
1005.1 993.4 +33.7 0.0
15 21.09 0 н/о
00 22.09 штиль 0 4000 м 9/4 300 м
[Sc Ac As]
+25.8 +24.3 91 +36 +36 очень
душно
1006.7 994.9 0.0
03 22.09 штиль 0 4000 м 6/3 300 м
[Sc Ac trans]
+28.4 +24.3 78 +40 +44 очень
душно
1008.9 997.2 +25.4 +33.7 0.0
09 22.09 нст 2 4000 м в посл. час гроза 6/5 300 м
[Cb calv Ac trans]
+33.6 +23.5 56 +45 +51 опасность
перегрева
1004.5 993.0
12 22.09 штиль 0 4000 м гроза, ливневой дождь 9/5 300 м
[Cb cap Ac As]
+26.0 +25.4 97 +38 +38 очень
душно
1006.3 994.5 +34.0 42

 

Местоположение метеостанции Тирупати (Андхра-Прадеш, Индия): широта 13.67 долгота 79.58 высота над уровнем моря 105 м.

В архиве по умолчанию представлена погода в Тирупати за последнюю неделю. Архивные данные за месяц целиком и за предыдущие месяцы, начиная с января 2011 года, Вы можете получить, выбрав интересующий диапазон дат из раскрывающегося списка и нажав кнопку "Ввод!".


*Определитесь, кто Вы:
робот инопланетянин человек

Внимание! Время в таблицах - всемирное. Для получения местного времени необходимо прибавить поправку, которая равна 5.5 ч.

Смотрите также архив погоды в соседних городах и на ближайших метеорологических станциях:

Погода в Терутани (Тамилнад, Индия) (58 км)
Погода в Ченнаи (Тамилнад, Индия) (95 км)
Погода в Веллоре (Тамилнад, Индия) (96 км)
Погода в Неллуру (Андхра-Прадеш, Индия) (97 км)
Погода в Ченнаи (Тамилнад, Индия) (99 км)
Погода в Маданапалле (Андхра-Прадеш, Индия) (118 км)
Погода в Кавали (Андхра-Прадеш, Индия) (143 км)
Погода в Чинтамани (Карнатака, Индия) (172 км)
Погода в Тирупатчере (Тамилнад, Индия) (172 км)
Погода в Чикканахолли (Карнатака, Индия) (179 км)

Пояснения к столбцам:

Ветер - указаны скорость ветра в м/с - средняя за 10 мин, порывы в срок и между сроками (в фигурных скобках) и направление, откуда дует ветер: С - северный, СВ - северо-восточный, В - восточный, ЮВ - юго-восточный, Ю - южный, ЮЗ - юго-западный, З - западный, СЗ - северо-западный.
Видимость - горизонтальная дальность видимости в метрах или километрах. При видимости от 1 до 10 км при отсутствии осадков обычно наблюдается дымка, при ухудшении видимости до 1 км и менее - туман. В сухую погоду видимость может ухудшаться дымом, пылью или мглою.
Явления - указаны атмосферные явления, наблюдавшиеся в срок или в последний час перед сроком; фигурными скобками обозначены явления, наблюдавшиеся между сроками (за 1-3 часа до срока); квадратными скобками обозначены град или гололедные отложения с указанием их диаметра в мм.
Облачность - указаны через наклонную черту общая и нижняя облачность в баллах и высота нижней границы облаков в метрах; квадратными скобками обозначены формы облаков: Ci - перистые, Cs - перисто-слоистые, Cc - перисто-кучевые, Ac - высококучевые, As - высокослоистые, Sc - слоисто-кучевые, Ns - слоисто-дождевые, Cu - кучевые, Cb - кучево-дождевые. Подробнее классификацию облаков см. в Атласе облаков (PDF).
T - Температура воздуха - температура, измеренная на высоте 2 м над землей.
Td - Температура точки росы - температура, при понижении до которой содержащийся в воздухе водяной пар достигнет насыщения.
f - Относительная влажность воздуха - влажноcть воздуха, измеренная на высоте 2 м над землей.
Te - Эффективная температура - температура, которую ощущает одетый по сезону человек в тени. Характеристика душности погоды. При расчете учитывается влияние влажности воздуха и скорости ветра на теплоощущения человека.
Tes - Эффективная температура на солнце - температура, которую ощущает человек, с поправкой на солнечный нагрев. Характеристика знойности погоды. Зависит от высоты солнца над горизонтом, облачности и скорости ветра. Ночью, в пасмурную погоду, а также при ветре 12 м/с и более поправка равна нулю.
P - Атмосферное давление - приведенное к уровню моря атмосферное давление.
Po - Атмосферное давление - измеренное на уровне метеостанции атмосферное давление.
Tmin - Минимальная температура - минимум температуры воздуха на высоте 2 м над землей.
Tmax - Максимальная температура - максимум температуры воздуха на высоте 2 м над землей.
R - Количество осадков - Количество выпавших осадков за период времени, мм. При наведении курсора мыши на число - период времени, за который выпало указанное количество осадков.
R24 - Количество осадков - Количество выпавших осадков за 24 часа, мм.
S - Снежный покров - Высота снежного покрова, см. При наведении курсора мыши на число - состояние снежного покрова и степень покрытия местности в баллах.